Fort Leonard Wood, MO

6:32 AM CST on November 18, 2017 (GMT -0600)
Waynesville Regional At Forney Field

Weather History for KTBN - November, 2011

Change the Weather History Date:

Friday, November 4, 2011

  Actual Average Record
Temperature  
Mean Temperature 48 °F -  
Max Temperature 54 °F 57 °F 80 °F (2003)
Min Temperature 41 °F 42 °F 28 °F (1997)
Degree Days  
Heating Degree Days 18    
Moisture  
Dew Point 42 °F    
Average Humidity 87    
Maximum Humidity 100    
Minimum Humidity 68    
Precipitation  
Precipitation 0.00 in - - ()
Sea Level Pressure  
Sea Level Pressure 30.22 in    
Wind  
Wind Speed 6 mph (ENE)    
Max Wind Speed 17 mph    
Max Gust Speed -    
Visibility 10 miles    
Events      
Averages and records for this station are not official NWS values.
T = Trace of Precipitation, MM = Missing Value Source: NWS Daily Summary

Daily Weather History Graph

Daily Weather History Graph

Search for Another Location

Airport or City:

Trip Planner

Search our weather history database for the weather conditions in past years. The results will help you decide how hot, cold, wet, or windy it might be!

Date:

Astronomy

Nov. 04, 2011 Rise Set
Actual Time 7:36 AM CDT 6:07 PM CDT
Civil Twilight 7:09 AM CDT 6:34 PM CDT
Nautical Twilight 6:38 AM CDT 7:05 PM CDT
Astronomical Twilight 6:07 AM CDT 7:36 PM CDT
Moon 2:53 PM CDT (11/4) 1:55 AM CDT (11/4)
Length of Visible Light 11h 24m
Length of Day
10h 30m
Waxing Gibbous, 69% of the Moon is Illuminated
Nov 4
Waxing Gibbous
Nov 10
Full
Nov 18
Last Quarter
Nov 25
New
Dec 2
First Quarter

Hourly Weather History & Observations

Time (CDT) Temp. Windchill Dew Point Humidity Pressure Visibility Wind Dir Wind Speed Gust Speed Precip Events Conditions
12:55 AM 43.3 °F 38.1 °F 39.0 °F 85% 30.20 in 10.0 mi NNW 9.2 mph - N/A   Overcast
1:55 AM 41.9 °F 39.0 °F 38.1 °F 86% 30.21 in 10.0 mi NW 4.6 mph - N/A   Overcast
2:55 AM 41.5 °F 37.8 °F 37.8 °F 86% 30.22 in 10.0 mi NW 5.8 mph - N/A   Overcast
3:55 AM 41.5 °F 38.6 °F 38.3 °F 88% 30.22 in 10.0 mi NNW 4.6 mph - N/A   Overcast
4:55 AM 41.9 °F 40.0 °F 39.6 °F 91% 30.23 in 10.0 mi NW 3.5 mph - N/A   Overcast
5:32 AM 41.0 °F 38.0 °F 39.2 °F 93% 30.23 in 10.0 mi North 4.6 mph - N/A   Overcast
5:55 AM 42.1 °F 38.4 °F 39.6 °F 91% 30.22 in 10.0 mi North 5.8 mph - N/A   Overcast
6:55 AM 43.0 °F 40.3 °F 40.8 °F 92% 30.23 in 10.0 mi North 4.6 mph - N/A   Overcast
7:55 AM 42.3 °F 39.4 °F 40.8 °F 95% 30.26 in 10.0 mi WNW 4.6 mph - N/A   Overcast
8:55 AM 43.0 °F 39.5 °F 40.6 °F 91% 30.27 in 10.0 mi NNE 5.8 mph - N/A   Overcast
9:55 AM 43.5 °F 40.1 °F 40.8 °F 90% 30.28 in 10.0 mi NNE 5.8 mph - N/A   Overcast
10:55 AM 44.2 °F 41.8 °F 41.4 °F 90% 30.29 in 10.0 mi Variable 4.6 mph - N/A   Overcast
11:55 AM 45.0 °F 43.5 °F 41.7 °F 88% 30.28 in 10.0 mi ENE 3.5 mph - N/A   Overcast
12:55 PM 46.6 °F - 42.3 °F 85% 30.27 in 10.0 mi Calm Calm - N/A   Overcast
1:37 PM 48.2 °F - 42.8 °F 82% 30.25 in 10.0 mi Variable 4.6 mph - N/A   Overcast
1:47 PM 50.0 °F - 42.8 °F 76% 30.24 in 10.0 mi Variable 5.8 mph - N/A   Scattered Clouds
1:55 PM 50.0 °F - 43.3 °F 78% 30.24 in 10.0 mi Variable 4.6 mph - N/A   Scattered Clouds
2:13 PM 50.0 °F - 42.8 °F 76% 30.23 in 10.0 mi Calm Calm - N/A   Mostly Cloudy
2:28 PM 50.0 °F - 42.8 °F 76% 30.22 in 10.0 mi NNE 4.6 mph - N/A   Scattered Clouds
2:55 PM 51.8 °F - 43.7 °F 74% 30.21 in 10.0 mi East 5.8 mph - N/A   Clear
3:55 PM 53.6 °F - 44.1 °F 70% 30.19 in 10.0 mi Variable 4.6 mph - N/A   Clear
4:55 PM 54.1 °F - 43.9 °F 68% 30.19 in 10.0 mi East 4.6 mph - N/A   Clear
5:55 PM 51.8 °F - 44.2 °F 75% 30.18 in 10.0 mi East 4.6 mph - N/A   Clear
6:55 PM 48.9 °F - 43.9 °F 83% 30.18 in 10.0 mi ESE 5.8 mph - N/A   Clear
7:55 PM 47.7 °F - 43.9 °F 87% 30.18 in 10.0 mi ESE 8.1 mph - N/A   Clear
8:55 PM 44.1 °F 40.1 °F 43.0 °F 96% 30.19 in 10.0 mi SE 6.9 mph - N/A   Clear
9:55 PM 43.5 °F 39.4 °F 42.8 °F 97% 30.19 in 7.0 mi SSE 6.9 mph - N/A   Clear
10:55 PM 42.4 °F 37.0 °F 42.3 °F 99% 30.20 in 10.0 mi SE 9.2 mph - N/A   Clear
11:27 PM 42.8 °F 36.6 °F 42.8 °F 100% 30.18 in 10.0 mi SE 11.5 mph - N/A   Mostly Cloudy
11:32 PM 42.8 °F 36.6 °F 42.8 °F 100% 30.18 in 10.0 mi SE 11.5 mph - N/A   Mostly Cloudy
11:47 PM 42.8 °F 36.2 °F 42.8 °F 100% 30.18 in 10.0 mi SSE 12.7 mph - N/A   Overcast
11:55 PM 43.7 °F 36.0 °F 43.3 °F 99% 30.17 in 10.0 mi SE 17.3 mph - N/A   Overcast